Date,TemperatureHighF,TemperatureAvgF,TemperatureLowF,DewpointHighF,DewpointAvgF,DewpointLowF,HumidityHigh,HumidityAvg,HumidityLow,PressureMaxIn,PressureMinIn,WindSpeedMaxMPH,WindSpeedAvgMPH,GustSpeedMaxMPH,PrecipitationSumIn
2013-2-1,3,-4,-12,1,-9,-16,91,77,59,30.32,30.10,8,3,16,0.00
2013-2-2,12,6,0,8,2,-3,93,84,67,30.21,30.01,10,3,13,0.00
2013-2-3,14,11,5,10,7,2,94,83,68,30.10,30.00,9,3,16,0.00
2013-2-4,16,11,3,13,5,0,95,78,61,30.10,29.80,8,3,19,0.00
2013-2-5,28,22,12,27,18,9,99,85,61,30.12,29.69,13,3,21,0.00
2013-2-6,25,17,7,24,15,6,96,93,88,30.15,29.97,10,3,16,0.00
2013-2-7,28,26,25,26,24,23,100,93,83,30.29,30.03,13,5,21,0.00
2013-2-8,27,22,14,23,17,12,96,80,64,30.40,30.27,12,4,14,0.00
2013-2-9,32,29,24,30,27,21,100,94,89,30.27,29.99,18,8,26,0.01
2013-2-10,34,31,28,34,31,27,100,98,94,30.00,29.31,17,5,26,0.00
2013-2-11,31,26,20,31,23,16,100,89,77,30.07,29.36,14,5,22,0.00
2013-2-12,36,26,16,26,21,14,95,82,63,30.08,29.85,13,4,18,0.16
2013-2-13,40,30,22,34,27,20,100,88,65,29.85,29.60,10,3,13,0.26
2013-2-14,33,27,16,33,22,6,100,84,51,30.21,29.63,11,3,16,0.19
2013-2-15,19,13,7,8,5,2,84,71,54,30.31,30.21,11,4,17,0.00
2013-2-16,20,10,2,9,5,-1,91,78,61,30.29,30.16,7,2,11,0.00
2013-2-17,31,22,6,23,15,3,88,77,65,30.16,29.70,19,7,25,0.00
2013-2-18,34,26,11,32,22,7,94,84,77,29.83,29.55,17,6,26,0.00
2013-2-19,11,7,3,7,-1,-5,84,69,58,30.38,29.83,17,6,29,0.00
2013-2-20,15,8,-3,6,2,-7,88,74,62,30.48,30.42,9,3,12,0.00
2013-2-21,23,15,6,15,8,2,88,74,62,30.48,30.16,14,4,18,0.00
2013-2-22,28,25,21,25,23,20,99,92,83,30.00,29.88,11,3,12,0.07
2013-2-23,34,26,22,28,24,21,98,89,74,30.00,29.87,7,3,11,0.02
2013-2-24,36,26,16,25,21,15,98,81,61,30.15,30.00,9,2,12,0.00
2013-2-25,38,29,22,28,25,21,99,84,65,30.15,30.08,7,1,8,0.00
2013-2-26,38,30,22,30,26,21,100,87,71,30.11,29.91,19,4,19,0.00
2013-2-27,39,32,27,29,27,24,89,81,64,30.07,29.90,19,6,27,0.00
2013-2-28,31,29,24,25,22,18,87,77,70,30.27,30.07,15,5,23,0.00